Wetterdaten: aktuell Dienstag, 28.01.2020 20:40
Datum Zeit Temp. I. Temp. A. Feuchte A. Luftdruck Regen Wind Richtung Richtung Sonnenschein Taupunkt Windchill Windben
28.01.2020 20:40 22,0 C 2,6 C 72 % 997,2 hPa 0,0 l/m 8,2 km/h (2 Bft) W 270 0 min -1,9 C 0,9 C 6,9 km/h (2 Bft)
28.01.2020 20:30 22,0 C 2,4 C 73 % 997,1 hPa 0,0 l/m 8,4 km/h (2 Bft) W-NW 292 0 min -1,9 C 0,5 C 6,3 km/h (2 Bft)
28.01.2020 20:20 22,0 C 2,6 C 73 % 997,1 hPa 0,0 l/m 10,0 km/h (2 Bft) W 270 0 min -1,7 C -0,6 C 15,8 km/h (3 Bft)
28.01.2020 20:10 22,0 C 2,6 C 73 % 997,1 hPa 0,0 l/m 10,5 km/h (2 Bft) W-SW 247 0 min -1,7 C -1,0 C 11,1 km/h (2 Bft)
28.01.2020 20:00 22,0 C 2,5 C 73 % 997,1 hPa 0,0 l/m 8,5 km/h (2 Bft) SW 225 0 min -1,8 C 0,5 C 12,2 km/h (2 Bft)
28.01.2020 19:50 22,0 C 2,7 C 73 % 996,7 hPa 0,0 l/m 8,9 km/h (2 Bft) W-NW 292 0 min -1,6 C 0,4 C 8,0 km/h (2 Bft)
28.01.2020 19:40 22,0 C 2,9 C 74 % 996,7 hPa 0,0 l/m 8,7 km/h (2 Bft) W-SW 247 0 min -1,3 C 0,8 C 11,4 km/h (2 Bft)
28.01.2020 19:30 22,0 C 2,9 C 75 % 996,4 hPa 0,0 l/m 9,5 km/h (2 Bft) NW 315 0 min -1,1 C 0,1 C 9,7 km/h (2 Bft)
28.01.2020 19:20 22,0 C 3,1 C 76 % 996,4 hPa 0,0 l/m 9,7 km/h (2 Bft) W 270 0 min -0,7 C 0,2 C 7,7 km/h (2 Bft)
28.01.2020 19:10 21,9 C 3,1 C 78 % 996,4 hPa 0,0 l/m 8,9 km/h (2 Bft) W 270 0 min -0,4 C 0,8 C 12,2 km/h (2 Bft)
28.01.2020 19:00 21,9 C 3,0 C 79 % 996,4 hPa 0,0 l/m 7,1 km/h (2 Bft) W-NW 292 0 min -0,3 C 2,3 C 10,1 km/h (2 Bft)
28.01.2020 18:50 21,8 C 3,0 C 79 % 995,8 hPa 0,0 l/m 6,1 km/h (2 Bft) S 180 0 min -0,3 C 3,0 C 7,7 km/h (2 Bft)
28.01.2020 18:40 21,8 C 3,1 C 79 % 995,8 hPa 0,0 l/m 6,1 km/h (2 Bft) SW 225 0 min -0,2 C 3,1 C 5,3 km/h (1 Bft)
28.01.2020 18:30 21,7 C 3,0 C 79 % 995,6 hPa 0,0 l/m 3,2 km/h (1 Bft) SW 225 0 min -0,3 C 3,0 C 5,5 km/h (1 Bft)
28.01.2020 18:20 21,6 C 2,8 C 79 % 995,6 hPa 0,0 l/m 4,2 km/h (1 Bft) NW 315 0 min -0,5 C 2,8 C 0,0 km/h (0 Bft)
28.01.2020 18:10 21,6 C 2,8 C 81 % 995,2 hPa 0,0 l/m 5,5 km/h (1 Bft) W 270 0 min -0,1 C 2,8 C 6,0 km/h (2 Bft)
28.01.2020 18:00 21,6 C 2,4 C 81 % 995,2 hPa 0,0 l/m 7,6 km/h (2 Bft) W 270 0 min -0,5 C 1,2 C 6,9 km/h (2 Bft)
28.01.2020 17:50 21,5 C 2,7 C 80 % 995,0 hPa 0,0 l/m 9,7 km/h (2 Bft) S 180 0 min -0,4 C -0,2 C 6,1 km/h (2 Bft)
28.01.2020 17:40 21,5 C 3,0 C 79 % 995,0 hPa 0,0 l/m 12,7 km/h (3 Bft) W 270 0 min -0,3 C -2,0 C 15,6 km/h (3 Bft)
28.01.2020 17:30 21,4 C 3,6 C 79 % 994,5 hPa 0,0 l/m 11,6 km/h (2 Bft) W-SW 247 0 min 0,3 C -0,6 C 23,3 km/h (4 Bft)
28.01.2020 17:20 21,4 C 3,4 C 80 % 994,5 hPa 0,0 l/m 7,4 km/h (2 Bft) W-SW 247 0 min 0,3 C 2,5 C 16,3 km/h (3 Bft)
28.01.2020 17:10 21,4 C 3,5 C 80 % 994,4 hPa 0,7 l/m 8,2 km/h (2 Bft) W 270 0 min 0,4 C 1,9 C 8,4 km/h (2 Bft)
28.01.2020 17:00 21,4 C 3,8 C 81 % 994,4 hPa 0,0 l/m 8,7 km/h (2 Bft) W-SW 247 0 min 0,8 C 1,8 C 12,2 km/h (2 Bft)
28.01.2020 16:50 21,2 C 4,1 C 81 % 994,6 hPa 0,0 l/m 5,3 km/h (1 Bft) S-SO 157 0 min 1,1 C 4,1 C 11,1 km/h (2 Bft)
28.01.2020 16:40 21,2 C 4,2 C 81 % 994,6 hPa 0,0 l/m 5,6 km/h (1 Bft) W 270 0 min 1,2 C 4,2 C 6,3 km/h (2 Bft)
28.01.2020 16:30 21,2 C 4,2 C 81 % 993,9 hPa 0,0 l/m 6,9 km/h (2 Bft) W-NW 292 0 min 1,2 C 3,8 C 6,8 km/h (2 Bft)
28.01.2020 16:20 21,2 C 4,3 C 81 % 993,9 hPa 0,0 l/m 6,9 km/h (2 Bft) SO 135 0 min 1,3 C 3,9 C 9,2 km/h (2 Bft)
28.01.2020 16:10 21,3 C 4,4 C 83 % 993,2 hPa 0,0 l/m 8,0 km/h (2 Bft) S-SO 157 0 min 1,8 C 3,0 C 6,1 km/h (2 Bft)
28.01.2020 15:59 21,2 C 4,0 C 84 % 993,2 hPa 0,0 l/m 5,8 km/h (2 Bft) S-SW 202 0 min 1,5 C 4,0 C 7,1 km/h (2 Bft)
28.01.2020 15:50 21,2 C 3,6 C 85 % 993,1 hPa 0,0 l/m 4,2 km/h (1 Bft) W 270 0 min 1,3 C 3,6 C 9,0 km/h (2 Bft)
28.01.2020 15:40 21,2 C 3,5 C 84 % 993,1 hPa 0,0 l/m 4,2 km/h (1 Bft) W-SW 247 0 min 1,1 C 3,5 C 0,0 km/h (0 Bft)
28.01.2020 15:30 21,2 C 4,0 C 84 % 993,5 hPa 0,7 l/m 5,6 km/h (1 Bft) N-NO 22 0 min 1,5 C 4,0 C 3,1 km/h (1 Bft)
28.01.2020 15:20 21,2 C 4,7 C 84 % 993,5 hPa 1,4 l/m 6,1 km/h (2 Bft) S 180 0 min 2,2 C 4,7 C 22,7 km/h (4 Bft)
28.01.2020 15:10 21,2 C 5,2 C 83 % 992,4 hPa 0,0 l/m 4,2 km/h (1 Bft) W 270 0 min 2,6 C 5,2 C 3,7 km/h (1 Bft)
28.01.2020 15:00 21,4 C 5,3 C 82 % 992,4 hPa 0,0 l/m 6,1 km/h (2 Bft) SO 135 0 min 2,5 C 5,3 C 4,5 km/h (1 Bft)
28.01.2020 14:50 21,4 C 5,5 C 80 % 992,6 hPa 0,0 l/m 6,8 km/h (2 Bft) S-SO 157 0 min 2,3 C 5,2 C 10,6 km/h (2 Bft)
28.01.2020 14:40 21,5 C 5,7 C 79 % 992,6 hPa 0,0 l/m 6,8 km/h (2 Bft) S 180 0 min 2,3 C 5,4 C 10,1 km/h (2 Bft)
28.01.2020 14:30 21,5 C 5,8 C 79 % 992,8 hPa 0,0 l/m 6,1 km/h (2 Bft) SO 135 0 min 2,4 C 5,8 C 11,3 km/h (2 Bft)
28.01.2020 14:20 21,6 C 5,9 C 79 % 992,8 hPa 0,0 l/m 5,1 km/h (1 Bft) SO 135 0 min 2,5 C 5,9 C 10,0 km/h (2 Bft)
28.01.2020 14:10 21,6 C 5,9 C 79 % 993,4 hPa 0,0 l/m 6,6 km/h (2 Bft) N-NO 22 0 min 2,5 C 5,8 C 9,0 km/h (2 Bft)
28.01.2020 14:00 21,6 C 6,0 C 79 % 993,4 hPa 0,0 l/m 6,3 km/h (2 Bft) SO 135 0 min 2,6 C 6,0 C 12,7 km/h (3 Bft)
28.01.2020 13:50 21,7 C 6,1 C 79 % 993,8 hPa 0,0 l/m 6,3 km/h (2 Bft) S 180 0 min 2,7 C 6,1 C 14,5 km/h (3 Bft)
28.01.2020 13:40 21,7 C 6,0 C 79 % 993,8 hPa 0,0 l/m 5,6 km/h (1 Bft) S 180 0 min 2,6 C 6,0 C 5,1 km/h (1 Bft)
28.01.2020 13:30 21,7 C 6,2 C 79 % 993,9 hPa 0,0 l/m 5,1 km/h (1 Bft) S-SW 202 0 min 2,8 C 6,2 C 9,8 km/h (2 Bft)
28.01.2020 13:20 21,7 C 6,2 C 80 % 993,9 hPa 0,7 l/m 5,5 km/h (1 Bft) S-SO 157 0 min 3,0 C 6,2 C 8,7 km/h (2 Bft)
28.01.2020 13:10 21,7 C 5,8 C 80 % 994,8 hPa 0,0 l/m 5,3 km/h (1 Bft) S-SO 157 0 min 2,6 C 5,8 C 7,6 km/h (2 Bft)
28.01.2020 13:00 21,8 C 5,8 C 79 % 994,8 hPa 0,0 l/m 6,9 km/h (2 Bft) S-SO 157 0 min 2,4 C 5,4 C 6,8 km/h (2 Bft)
28.01.2020 12:50 21,8 C 5,9 C 77 % 995,2 hPa 0,0 l/m 7,9 km/h (2 Bft) SO 135 0 min 2,2 C 4,6 C 15,8 km/h (3 Bft)
28.01.2020 12:40 21,9 C 6,1 C 75 % 995,2 hPa 0,0 l/m 5,8 km/h (2 Bft) S-SO 157 0 min 2,0 C 6,1 C 18,2 km/h (3 Bft)
28.01.2020 12:30 22,0 C 6,2 C 75 % 995,8 hPa 0,0 l/m 6,6 km/h (2 Bft) SO 135 0 min 2,1 C 6,1 C 7,6 km/h (2 Bft)
28.01.2020 12:20 22,1 C 6,2 C 74 % 995,8 hPa 0,0 l/m 7,9 km/h (2 Bft) O-SO 112 0 min 1,9 C 4,9 C 4,2 km/h (1 Bft)
28.01.2020 12:10 22,2 C 6,2 C 74 % 995,8 hPa 0,0 l/m 7,1 km/h (2 Bft) SO 135 0 min 1,9 C 5,6 C 16,4 km/h (3 Bft)
28.01.2020 12:00 22,2 C 6,2 C 75 % 995,8 hPa 0,0 l/m 5,8 km/h (2 Bft) S-SO 157 0 min 2,1 C 6,2 C 6,4 km/h (2 Bft)
28.01.2020 11:50 22,2 C 6,2 C 76 % 996,1 hPa 0,0 l/m 7,1 km/h (2 Bft) SO 135 0 min 2,3 C 5,6 C 5,0 km/h (1 Bft)
28.01.2020 11:40 22,2 C 6,0 C 76 % 996,1 hPa 0,0 l/m 6,8 km/h (2 Bft) SO 135 0 min 2,1 C 5,7 C 7,7 km/h (2 Bft)
28.01.2020 11:30 22,2 C 5,9 C 78 % 996,1 hPa 0,0 l/m 7,1 km/h (2 Bft) SO 135 0 min 2,4 C 5,3 C 7,6 km/h (2 Bft)
28.01.2020 11:20 22,0 C 5,8 C 78 % 996,1 hPa 0,0 l/m 8,7 km/h (2 Bft) S-SO 157 0 min 2,3 C 3,9 C 9,2 km/h (2 Bft)
28.01.2020 11:10 22,0 C 5,7 C 79 % 996,4 hPa 0,0 l/m 7,6 km/h (2 Bft) S-SO 157 0 min 2,3 C 4,7 C 10,0 km/h (2 Bft)
28.01.2020 11:00 21,8 C 5,4 C 80 % 996,4 hPa 0,0 l/m 7,7 km/h (2 Bft) SO 135 0 min 2,2 C 4,3 C 10,6 km/h (2 Bft)
28.01.2020 10:50 21,6 C 5,1 C 81 % 996,2 hPa 0,0 l/m 7,6 km/h (2 Bft) SO 135 0 min 2,1 C 4,0 C 12,6 km/h (3 Bft)
28.01.2020 10:40 21,4 C 4,9 C 81 % 996,2 hPa 0,0 l/m 7,9 km/h (2 Bft) O-SO 112 0 min 1,9 C 3,6 C 8,0 km/h (2 Bft)
28.01.2020 10:30 21,2 C 4,7 C 82 % 995,9 hPa 0,0 l/m 10,6 km/h (2 Bft) SO 135 0 min 1,9 C 1,3 C 8,2 km/h (2 Bft)
28.01.2020 10:20 21,0 C 4,5 C 83 % 995,9 hPa 0,0 l/m 8,2 km/h (2 Bft) SO 135 0 min 1,9 C 2,9 C 15,8 km/h (3 Bft)
28.01.2020 10:10 20,8 C 4,3 C 83 % 995,8 hPa 0,0 l/m 10,8 km/h (2 Bft) SO 135 0 min 1,7 C 0,7 C 7,1 km/h (2 Bft)
28.01.2020 10:00 20,7 C 4,0 C 84 % 995,8 hPa 0,0 l/m 9,7 km/h (2 Bft) S 180 0 min 1,5 C 1,2 C 10,6 km/h (2 Bft)
28.01.2020 09:50 20,5 C 3,7 C 84 % 995,9 hPa 0,0 l/m 11,6 km/h (2 Bft) SO 135 0 min 1,3 C -0,5 C 41,2 km/h (6 Bft)
28.01.2020 09:40 20,4 C 3,7 C 84 % 995,9 hPa 0,0 l/m 10,0 km/h (2 Bft) SO 135 0 min 1,3 C 0,6 C 18,0 km/h (3 Bft)
28.01.2020 09:30 20,2 C 3,8 C 84 % 995,8 hPa 0,0 l/m 10,6 km/h (2 Bft) SO 135 0 min 1,4 C 0,3 C 12,1 km/h (2 Bft)
28.01.2020 09:20 20,2 C 3,5 C 85 % 995,8 hPa 0,0 l/m 10,1 km/h (2 Bft) S 180 0 min 1,2 C 0,3 C 11,7 km/h (2 Bft)
28.01.2020 09:10 20,1 C 3,4 C 85 % 995,7 hPa 0,0 l/m 10,3 km/h (2 Bft) SO 135 0 min 1,1 C 0,1 C 13,2 km/h (3 Bft)
28.01.2020 09:00 20,0 C 3,4 C 85 % 995,7 hPa 0,0 l/m 10,8 km/h (2 Bft) SO 135 0 min 1,1 C -0,3 C 16,7 km/h (3 Bft)
28.01.2020 08:50 19,9 C 3,3 C 85 % 995,9 hPa 0,0 l/m 10,8 km/h (2 Bft) O-SO 112 0 min 1,0 C -0,4 C 8,0 km/h (2 Bft)
28.01.2020 08:40 19,7 C 3,4 C 85 % 995,9 hPa 0,0 l/m 10,1 km/h (2 Bft) S-SO 157 0 min 1,1 C 0,2 C 12,4 km/h (3 Bft)
28.01.2020 08:30 19,7 C 3,3 C 85 % 996,4 hPa 0,0 l/m 10,0 km/h (2 Bft) S-SO 157 0 min 1,0 C 0,2 C 18,0 km/h (3 Bft)
28.01.2020 08:20 19,7 C 3,4 C 85 % 996,4 hPa 0,0 l/m 8,2 km/h (2 Bft) SO 135 0 min 1,1 C 1,7 C 7,9 km/h (2 Bft)
28.01.2020 08:10 20,0 C 3,3 C 84 % 996,2 hPa 0,0 l/m 9,8 km/h (2 Bft) O-SO 112 0 min 0,9 C 0,3 C 21,4 km/h (4 Bft)
28.01.2020 08:00 19,9 C 3,4 C 83 % 996,2 hPa 0,0 l/m 8,9 km/h (2 Bft) SO 135 0 min 0,8 C 1,2 C 17,7 km/h (3 Bft)
28.01.2020 07:50 19,9 C 3,6 C 82 % 996,1 hPa 0,0 l/m 10,6 km/h (2 Bft) SO 135 0 min 0,8 C 0,1 C 12,4 km/h (3 Bft)
28.01.2020 07:40 19,8 C 3,8 C 81 % 996,1 hPa 0,0 l/m 8,4 km/h (2 Bft) S 180 0 min 0,8 C 2,0 C 8,4 km/h (2 Bft)
28.01.2020 07:30 19,8 C 3,9 C 81 % 996,0 hPa 0,0 l/m 10,0 km/h (2 Bft) SO 135 0 min 0,9 C 0,9 C 10,9 km/h (2 Bft)
28.01.2020 07:20 19,7 C 4,0 C 81 % 996,0 hPa 0,0 l/m 8,5 km/h (2 Bft) S 180 0 min 1,0 C 2,1 C 12,2 km/h (2 Bft)
28.01.2020 07:10 19,7 C 3,9 C 81 % 996,2 hPa 0,0 l/m 8,2 km/h (2 Bft) SO 135 0 min 0,9 C 2,3 C 12,9 km/h (3 Bft)
28.01.2020 07:00 19,7 C 3,9 C 80 % 996,2 hPa 0,0 l/m 9,7 km/h (2 Bft) O-SO 112 0 min 0,8 C 1,1 C 9,7 km/h (2 Bft)
28.01.2020 06:50 19,7 C 4,1 C 79 % 996,3 hPa 0,0 l/m 9,5 km/h (2 Bft) NO 45 0 min 0,8 C 1,4 C 9,3 km/h (2 Bft)
28.01.2020 06:40 19,7 C 4,2 C 78 % 996,3 hPa 0,0 l/m 9,5 km/h (2 Bft) O-SO 112 0 min 0,7 C 1,6 C 12,2 km/h (2 Bft)
28.01.2020 06:30 19,7 C 4,4 C 77 % 996,8 hPa 0,0 l/m 10,1 km/h (2 Bft) S 180 0 min 0,7 C 1,3 C 7,6 km/h (2 Bft)
28.01.2020 06:20 19,7 C 4,4 C 77 % 996,8 hPa 0,0 l/m 8,5 km/h (2 Bft) SO 135 0 min 0,7 C 2,6 C 9,5 km/h (2 Bft)
28.01.2020 06:10 19,7 C 4,3 C 77 % 996,6 hPa 0,0 l/m 9,2 km/h (2 Bft) SO 135 0 min 0,6 C 1,9 C 8,9 km/h (2 Bft)
28.01.2020 06:00 19,8 C 4,1 C 78 % 996,6 hPa 0,0 l/m 9,2 km/h (2 Bft) S-SO 157 0 min 0,6 C 1,7 C 10,1 km/h (2 Bft)
28.01.2020 05:50 19,8 C 3,8 C 78 % 997,2 hPa 0,0 l/m 10,1 km/h (2 Bft) SO 135 0 min 0,3 C 0,7 C 13,5 km/h (3 Bft)
28.01.2020 05:40 19,8 C 3,8 C 77 % 997,2 hPa 0,0 l/m 9,5 km/h (2 Bft) SO 135 0 min 0,1 C 1,1 C 15,4 km/h (3 Bft)
28.01.2020 05:30 19,8 C 3,8 C 77 % 997,8 hPa 0,0 l/m 8,2 km/h (2 Bft) SO 135 0 min 0,1 C 2,2 C 10,5 km/h (2 Bft)
28.01.2020 05:20 19,8 C 3,8 C 77 % 997,8 hPa 0,0 l/m 8,4 km/h (2 Bft) SO 135 0 min 0,1 C 2,0 C 8,4 km/h (2 Bft)
28.01.2020 05:10 19,9 C 3,8 C 77 % 998,1 hPa 0,0 l/m 9,0 km/h (2 Bft) SO 135 0 min 0,1 C 1,5 C 11,7 km/h (2 Bft)
28.01.2020 05:00 19,9 C 3,7 C 77 % 998,1 hPa 0,0 l/m 8,7 km/h (2 Bft) S-SO 157 0 min 0,1 C 1,6 C 10,5 km/h (2 Bft)
28.01.2020 04:50 19,9 C 3,7 C 77 % 998,6 hPa 0,0 l/m 4,5 km/h (1 Bft) S-SO 157 0 min 0,1 C 3,7 C 5,3 km/h (1 Bft)
28.01.2020 04:40 19,9 C 4,0 C 77 % 998,6 hPa 0,0 l/m 3,9 km/h (1 Bft) S 180 0 min 0,3 C 4,0 C 3,9 km/h (1 Bft)
28.01.2020 04:30 19,9 C 4,2 C 76 % 998,4 hPa 0,0 l/m 6,9 km/h (2 Bft) O-SO 112 0 min 0,4 C 3,8 C 29,9 km/h (5 Bft)
28.01.2020 04:20 20,0 C 4,2 C 77 % 998,4 hPa 0,0 l/m 9,7 km/h (2 Bft) O-SO 112 0 min 0,5 C 1,4 C 5,3 km/h (1 Bft)
28.01.2020 04:10 20,0 C 4,0 C 77 % 998,8 hPa 0,0 l/m 10,5 km/h (2 Bft) NO 45 0 min 0,3 C 0,6 C 15,4 km/h (3 Bft)
28.01.2020 04:00 20,0 C 4,0 C 78 % 998,8 hPa 0,0 l/m 11,3 km/h (2 Bft) SO 135 0 min 0,5 C 0,1 C 22,7 km/h (4 Bft)
28.01.2020 03:50 20,0 C 4,0 C 78 % 999,3 hPa 0,0 l/m 6,8 km/h (2 Bft) S-SO 157 0 min 0,5 C 3,6 C 14,2 km/h (3 Bft)
28.01.2020 03:40 20,0 C 3,9 C 79 % 999,3 hPa 0,0 l/m 6,9 km/h (2 Bft) SW 225 0 min 0,6 C 3,4 C 9,2 km/h (2 Bft)
28.01.2020 03:30 20,1 C 4,0 C 79 % 999,4 hPa 0,0 l/m 6,0 km/h (2 Bft) W-SW 247 0 min 0,7 C 4,0 C 12,6 km/h (3 Bft)
28.01.2020 03:20 20,1 C 4,2 C 80 % 999,4 hPa 0,0 l/m 9,7 km/h (2 Bft) S-SO 157 0 min 1,1 C 1,4 C 10,5 km/h (2 Bft)
28.01.2020 03:10 20,1 C 3,7 C 83 % 1000,4 hPa 0,0 l/m 6,1 km/h (2 Bft) SO 135 0 min 1,1 C 3,7 C 10,5 km/h (2 Bft)
28.01.2020 03:00 20,2 C 3,7 C 84 % 1000,4 hPa 0,0 l/m 7,7 km/h (2 Bft) O-SO 112 0 min 1,3 C 2,5 C 10,1 km/h (2 Bft)
28.01.2020 02:50 20,2 C 3,5 C 85 % 1000,6 hPa 0,0 l/m 9,2 km/h (2 Bft) S-SO 157 0 min 1,2 C 1,0 C 15,1 km/h (3 Bft)
28.01.2020 02:40 20,2 C 3,4 C 85 % 1000,6 hPa 0,0 l/m 10,1 km/h (2 Bft) SO 135 0 min 1,1 C 0,2 C 20,0 km/h (4 Bft)
28.01.2020 02:30 20,2 C 3,3 C 86 % 1000,9 hPa 0,0 l/m 9,2 km/h (2 Bft) O-SO 112 0 min 1,2 C 0,8 C 14,6 km/h (3 Bft)
28.01.2020 02:20 20,2 C 3,1 C 86 % 1000,9 hPa 0,0 l/m 8,5 km/h (2 Bft) W-SW 247 0 min 1,0 C 1,2 C 16,7 km/h (3 Bft)
28.01.2020 02:10 20,3 C 3,1 C 86 % 1001,3 hPa 0,0 l/m 7,2 km/h (2 Bft) S-SO 157 0 min 1,0 C 2,3 C 7,4 km/h (2 Bft)
28.01.2020 02:00 20,2 C 3,1 C 86 % 1001,3 hPa 0,0 l/m 7,2 km/h (2 Bft) S-SO 157 0 min 1,0 C 2,3 C 12,6 km/h (3 Bft)
28.01.2020 01:50 20,4 C 3,1 C 86 % 1001,6 hPa 0,0 l/m 6,9 km/h (2 Bft) S 180 0 min 1,0 C 2,6 C 7,2 km/h (2 Bft)
28.01.2020 01:40 20,4 C 3,0 C 85 % 1001,6 hPa 0,0 l/m 6,6 km/h (2 Bft) SO 135 0 min 0,7 C 2,8 C 9,3 km/h (2 Bft)
28.01.2020 01:30 20,4 C 2,9 C 85 % 1002,1 hPa 0,0 l/m 7,7 km/h (2 Bft) S-SO 157 0 min 0,6 C 1,7 C 11,4 km/h (2 Bft)
28.01.2020 01:20 20,4 C 3,0 C 84 % 1002,1 hPa 0,0 l/m 6,9 km/h (2 Bft) SO 135 0 min 0,6 C 2,5 C 7,6 km/h (2 Bft)
28.01.2020 01:10 20,4 C 3,3 C 83 % 1002,4 hPa 0,0 l/m 8,9 km/h (2 Bft) W-SW 247 0 min 0,7 C 1,1 C 12,7 km/h (3 Bft)
28.01.2020 01:00 20,5 C 3,3 C 82 % 1002,4 hPa 0,0 l/m 7,1 km/h (2 Bft) S 180 0 min 0,5 C 2,6 C 16,6 km/h (3 Bft)
28.01.2020 00:50 20,5 C 3,5 C 81 % 1002,9 hPa 0,0 l/m 6,6 km/h (2 Bft) S-SO 157 0 min 0,6 C 3,3 C 13,8 km/h (3 Bft)
28.01.2020 00:40 20,6 C 3,8 C 80 % 1002,9 hPa 0,0 l/m 6,6 km/h (2 Bft) W-SW 247 0 min 0,7 C 3,6 C 11,3 km/h (2 Bft)
28.01.2020 00:30 20,6 C 4,0 C 80 % 1003,4 hPa 0,0 l/m 5,0 km/h (1 Bft) S-SW 202 0 min 0,9 C 4,0 C 15,1 km/h (3 Bft)
28.01.2020 00:20 20,7 C 4,1 C 80 % 1003,4 hPa 0,0 l/m 5,8 km/h (2 Bft) S-SO 157 0 min 1,0 C 4,1 C 10,1 km/h (2 Bft)
28.01.2020 00:10 20,7 C 4,1 C 80 % 1003,8 hPa 0,0 l/m 6,6 km/h (2 Bft) S-SW 202 0 min 1,0 C 3,9 C 7,1 km/h (2 Bft)
28.01.2020 00:00 20,7 C 4,1 C 80 % 1003,8 hPa 0,0 l/m 7,1 km/h (2 Bft) S-SW 202 0 min 1,0 C 3,5 C 7,9 km/h (2 Bft)
27.01.2020 23:50 20,8 C 4,0 C 80 % 1004,2 hPa 0,0 l/m 5,6 km/h (1 Bft) SO 135 0 min 0,9 C 4,0 C 8,5 km/h (2 Bft)
27.01.2020 23:40 20,8 C 4,1 C 80 % 1004,2 hPa 0,0 l/m 5,0 km/h (1 Bft) S 180 0 min 1,0 C 4,1 C 5,0 km/h (1 Bft)
27.01.2020 23:30 20,8 C 4,1 C 79 % 1004,4 hPa 0,0 l/m 5,3 km/h (1 Bft) O-SO 112 0 min 0,8 C 4,1 C 6,8 km/h (2 Bft)
27.01.2020 23:20 20,8 C 4,2 C 79 % 1004,4 hPa 0,0 l/m 5,0 km/h (1 Bft) S-SO 157 0 min 0,9 C 4,2 C 3,5 km/h (1 Bft)
27.01.2020 23:10 20,9 C 4,3 C 78 % 1004,8 hPa 0,0 l/m 5,8 km/h (2 Bft) S-SO 157 0 min 0,8 C 4,3 C 12,2 km/h (2 Bft)
27.01.2020 23:00 20,9 C 4,3 C 78 % 1004,8 hPa 0,0 l/m 5,1 km/h (1 Bft) S-SO 157 0 min 0,8 C 4,3 C 6,6 km/h (2 Bft)
27.01.2020 22:50 20,9 C 4,2 C 78 % 1005,0 hPa 0,0 l/m 5,3 km/h (1 Bft) S-SO 157 0 min 0,7 C 4,2 C 4,8 km/h (1 Bft)
27.01.2020 22:40 21,0 C 4,2 C 78 % 1005,0 hPa 0,0 l/m 5,1 km/h (1 Bft) SO 135 0 min 0,7 C 4,2 C 8,0 km/h (2 Bft)
27.01.2020 22:30 21,0 C 4,2 C 78 % 1005,4 hPa 0,0 l/m 5,0 km/h (1 Bft) O-SO 112 0 min 0,7 C 4,2 C 6,1 km/h (2 Bft)
27.01.2020 22:20 21,0 C 4,3 C 78 % 1005,4 hPa 0,0 l/m 6,8 km/h (2 Bft) S 180 0 min 0,8 C 3,9 C 10,0 km/h (2 Bft)
27.01.2020 22:10 21,0 C 4,3 C 78 % 1005,7 hPa 0,0 l/m 5,5 km/h (1 Bft) SO 135 0 min 0,8 C 4,3 C 11,7 km/h (2 Bft)
27.01.2020 22:00 21,0 C 4,2 C 78 % 1005,7 hPa 0,0 l/m 5,6 km/h (1 Bft) O-SO 112 0 min 0,7 C 4,2 C 11,9 km/h (2 Bft)
27.01.2020 21:50 21,0 C 4,3 C 78 % 1006,1 hPa 0,0 l/m 6,8 km/h (2 Bft) S-SO 157 0 min 0,8 C 3,9 C 6,3 km/h (2 Bft)
27.01.2020 21:40 21,1 C 4,2 C 78 % 1006,1 hPa 0,0 l/m 6,1 km/h (2 Bft) S-SO 157 0 min 0,7 C 4,2 C 13,2 km/h (3 Bft)
27.01.2020 21:30 21,1 C 4,2 C 78 % 1006,3 hPa 0,0 l/m 6,0 km/h (2 Bft) S 180 0 min 0,7 C 4,2 C 9,7 km/h (2 Bft)
27.01.2020 21:20 21,1 C 4,1 C 78 % 1006,3 hPa 0,0 l/m 6,0 km/h (2 Bft) O-SO 112 0 min 0,6 C 4,1 C 4,8 km/h (1 Bft)
27.01.2020 21:10 21,1 C 4,2 C 79 % 1006,9 hPa 0,0 l/m 5,3 km/h (1 Bft) W-SW 247 0 min 0,9 C 4,2 C 4,5 km/h (1 Bft)
27.01.2020 21:00 21,1 C 4,2 C 79 % 1006,9 hPa 0,0 l/m 6,6 km/h (2 Bft) S 180 0 min 0,9 C 4,0 C 3,4 km/h (1 Bft)
_ Min-Zeit 06:10 18:00 20:40 15:00 - 18:30 - - - 20:30 17:40 15:40
Minimum _ 19,7 C 2,4 C 72 % 992,4 hPa - 3,2 km/h (1 Bft) - - - -1,9 C -2,0 C 0,0 km/h (0 Bft)
_ Max-Zeit 11:30 11:50 01:50 21:00 15:20 17:40 - - 21:00 13:20 12:00 09:50
Maximum _ 22,2 C 6,2 C 86 % 1006,9 hPa 1,4 l/m 12,7 km/h
W (3 Bft)
- - 0 min 3,0 C 6,2 C 41,2 km/h
SO (6 Bft)
Durchschnitt _ 20,9 C 4,1 C 80 % 998,5 hPa #3,4 l/m 7,5 km/h (2 Bft) SO - #0 min. 0,9 C 2,9 C 10,0 km/h (2 Bft)

©2020 Markus Bahr